Home   Weather   Fullerton   Past weeks

Flag for USA Past Weather in Fullerton, California, USA — Yesterday and Last 2 Weeks

Now
93 °F

Sunny.


Feels Like: 91 °F
Forecast: 65 / 91 °F
Wind: 9 mph from Southwest

Location: Fullerton Municipal Airport

Current Time: Sep 29, 2016 at 1:37:29 PM

Latest Report: Sep 29, 2016 at 12:53 PM


Visibility: 10 mi

Pressure: 29.98 "Hg

Humidity: 29%

Dew Point: 56 °F

Location of FullertonLocation

Past Weather in Fullerton — Graph

°F

Fullerton Temperature Yesterday

Maximum temperature yesterday: 94 °F (at 1:53 PM)
Minimum temperature yesterday: 69 °F (at 5:53 AM)
Average temperature yesterday: 81 °F

High & Low Weather Summary for the Past Weeks

 TemperatureHumidityPressure
High106 °F (Sep 26, 1:53 PM)94% (Sep 19, 5:00 AM)30.05 "Hg (Sep 19, 5:00 AM)
Low58 °F (Sep 15, 6:53 AM)6% (Sep 25, 2:53 PM)29.80 "Hg (Sep 27, 2:53 PM)
Average75 °F51%29.91 "Hg
* Reported Sep 14 11:53 AM — Sep 29 11:53 AM, Fullerton, Weather by CustomWeather, © 2016

Note: Actual official high and low records may vary slightly from our data, if they occured in-between our weather recording intervals... More about our weather records

Advertising

Fullerton Weather History for the Previous 24 Hours

Scroll right to see more
 ConditionsComfort  
Time TempWeatherWind HumidityBarometerVisibility
11:53 AM
Thu, Sep 29
93 °FSunny.7 mph23%30.00 "Hg10 mi
10:53 AM89 °FSunny.3 mph27%30.01 "Hg10 mi
9:53 AM84 °FSunny.No wind35%30.01 "Hg10 mi
8:53 AM79 °FSunny.No wind41%30.00 "Hg10 mi
7:53 AM73 °FSunny.No wind51%29.99 "Hg10 mi
6:53 AM69 °FSunny.No wind63%29.98 "Hg10 mi
5:53 AM69 °FClear.No wind63%29.96 "Hg10 mi
4:53 AM70 °FClear.No wind59%29.95 "Hg10 mi
3:53 AM72 °FClear.3 mph52%29.94 "Hg10 mi
2:53 AM73 °FClear.No wind51%29.94 "Hg10 mi
1:53 AM73 °FClear.No wind59%29.94 "Hg10 mi
12:53 AM74 °FClear.No wind56%29.94 "Hg10 mi
11:53 PM
Wed, Sep 28
76 °FClear.No wind50%29.93 "Hg10 mi
10:53 PM77 °FClear.No wind48%29.93 "Hg10 mi
9:53 PM79 °FClear.No wind42%29.93 "Hg10 mi
8:53 PM81 °FClear.5 mph37%29.92 "Hg10 mi
7:53 PM85 °FPassing clouds.6 mph30%29.90 "Hg10 mi
6:53 PM86 °FClear.5 mph28%29.88 "Hg10 mi
5:53 PM89 °FSunny.8 mph25%29.87 "Hg10 mi
4:53 PM92 °FSunny.7 mph24%29.85 "Hg10 mi
3:53 PM93 °FSunny.7 mph22%29.85 "Hg10 mi
2:53 PM92 °FSunny.10 mph23%29.85 "Hg10 mi
1:53 PM94 °FSunny.6 mph21%29.86 "Hg10 mi
Weather by CustomWeather, © 2016

See weather overviewHow to use our weather pages